Powrót do katalogu

FENGYUN 2A DEB

AktywnyGEO
NORAD 43355·DEBRIS·🇨🇳 China

Wystrzelony Jun 10, 1997 z Xichang Satellite Launch Center

Loading…

TLE

ŚwieżeSource: Space-Track

Epoka: Sep 13, 2026, 17:14 UTC

1 43355U 97029D   26256.71869742 -.00000354  00000-0  00000-0 0  9995
2 43355  14.8532 356.2582 0055651  54.5645 305.9696  1.00261852 43490

Śledź FENGYUN 2A DEB w czasie rzeczywistym z AllMySat

Download on the App Store